This demonstration page uses our WeatherBlox Daily Observations layout. Learn more.

Left ArrowRight Arrow

34.74481, -87.66753

Hourly Observations for December 29, 2020

Temp ( °F °C ) Dew Point ( °F °C ) Humidity (%) Winds ( mph kmh ) Pressure ( in mb ) Visibility ( mi km ) Precip ( " mm )
12:53 am 00:53 Clear 43 6.1 32 0 65 65 NE 9 15 30.39 1029 8 13 0.00 0.00
1:53 am 01:53 Clear 40 4.4 31 -0.6 70 70 ENE 7 11 30.39 1029 10 16 0.00 0.00
2:53 am 02:53 Clear 39 3.9 30 -1.1 70 70 ENE 3 6 30.40 1030 10 16 0.00 0.00
3:53 am 03:53 Clear 39 3.9 29 -1.7 67 67 NE 7 11 30.40 1030 10 16 0.00 0.00
4:53 am 04:53 Clear 39 3.9 29 -1.7 67 67 NE 7 11 30.42 1030 8 13 0.00 0.00
5:53 am 05:53 Clear 37 2.8 28 -2.2 70 70 NE 7 11 30.44 1031 7 11 0.00 0.00
6:53 am 06:53 Clear 36 2.2 28 -2.2 73 73 E 6 9 30.44 1031 7 11 0.00 0.00
7:53 am 07:53 Hazy 37 2.8 29 -1.7 73 73 Calm 30.43 1031 6 10 0.00 0.00
8:53 am 08:53 Hazy 41 5 31 -0.6 67 67 VRB 5 7 30.46 1031 6 10 0.00 0.00
9:53 am 09:53 Sunny 44 6.7 31 -0.6 60 60 ENE 7 11 30.43 1031 8 13 0.00 0.00
10:53 am 10:53 Sunny 48 8.9 32 0 54 54 Calm 30.41 1030 10 16 0.00 0.00
11:53 am 11:53 Sunny 51 10.6 33 0.6 50 50 SE 6 9 30.37 1028 10 16 0.00 0.00
12:53 pm 12:53 Sunny 53 11.7 35 1.7 51 51 ESE 7 11 30.32 1027 10 16 0.00 0.00
1:53 pm 13:53 Sunny 55 12.8 36 2.2 49 49 E 9 15 30.27 1025 10 16 0.00 0.00
2:53 pm 14:53 Sunny 57 13.9 35 1.7 44 44 NE 6 9 30.26 1025 10 16 0.00 0.00
3:53 pm 15:53 Sunny 55 12.8 34 1.1 45 45 ENE 6 9 30.26 1025 10 16 0.00 0.00
4:53 pm 16:53 Clear 53 11.7 34 1.1 48 48 ENE 3 6 30.24 1024 10 16 0.00 0.00
5:53 pm 17:53 Clear 48 8.9 34 1.1 58 58 Calm 30.24 1024 10 16 0.00 0.00
6:53 pm 18:53 Clear 47 8.3 34 1.1 61 61 E 6 9 30.23 1024 10 16 0.00 0.00
7:53 pm 19:53 Clear 48 8.9 34 1.1 58 58 ESE 7 11 30.24 1024 10 16 0.00 0.00
8:53 pm 20:53 Clear 48 8.9 36 2.2 63 63 Calm 30.24 1024 10 16 0.00 0.00
9:53 pm 21:53 Clear 47 8.3 37 2.8 69 69 E 5 7 30.24 1024 10 16 0.00 0.00
10:53 pm 22:53 Clear 45 7.2 37 2.8 74 74 E 5 7 30.22 1023 10 16 0.00 0.00
11:53 pm 23:53 Clear 45 7.2 38 3.3 77 77 E 5 7 30.22 1023 10 16 0.00 0.00

Powered by AerisWeather